This is the latest recevied weather packets stored in our database for station/object KJ5IIV. If no packets are shown the sender has not sent any weather packets the latest 10 day(s).
| Time | Temp. | Humidity | Pressure | Rain* | Wind** | Luminosity | Snow |
|---|---|---|---|---|---|---|---|
| 1777572694 | 16.67° C | 79% | 1015.6 hPa | 0 mm | - | 94 W/m² | - |
| 1777572394 | 17.22° C | 78% | 1015.4 hPa | 0 mm | - | 90 W/m² | - |
| 1777572091 | 17.22° C | 80% | 1015.4 hPa | 0 mm | - | 110 W/m² | - |
| 1777571791 | 17.22° C | 79% | 1015.3 hPa | 0 mm | - | 147 W/m² | - |
| 1777571488 | 17.22° C | 80% | 1015.1 hPa | 0 mm | - | 212 W/m² | - |
| 1777571185 | 17.22° C | 80% | 1015.3 hPa | 0 mm | - | 225 W/m² | - |
| 1777570880 | 17.22° C | 80% | 1015.2 hPa | 0 mm | - | 251 W/m² | - |
| 1777570576 | 16.67° C | 80% | 1015.4 hPa | 0 mm | - | 128 W/m² | - |
| 1777570274 | 16.67° C | 80% | 1015.7 hPa | 0 mm | - | 110 W/m² | - |
| 1777569969 | 17.22° C | 81% | 1015.7 hPa | 0 mm | - | 101 W/m² | - |
| 1777569665 | 16.67° C | 80% | 1015.5 hPa | 0 mm | - | 127 W/m² | - |
| 1777569360 | 16.67° C | 80% | 1015.5 hPa | 0 mm | - | 118 W/m² | - |
| 1777569057 | 16.67° C | 80% | 1015.3 hPa | 0 mm | - | 124 W/m² | - |
| 1777568754 | 17.22° C | 80% | 1015.5 hPa | 0 mm | - | 107 W/m² | - |
| 1777568452 | 17.22° C | 80% | 1015.2 hPa | 0 mm | - | 133 W/m² | - |
| 1777568148 | 17.22° C | 80% | 1014.9 hPa | 0 mm | - | 139 W/m² | - |
| 1777567845 | 17.22° C | 79% | 1015.1 hPa | 0 mm | - | 125 W/m² | - |
| 1777567541 | 17.22° C | 79% | 1015 hPa | 0 mm | - | 144 W/m² | - |
| 1777567238 | 17.22° C | 79% | 1014.9 hPa | 0 mm | - | 226 W/m² | - |
| 1777566937 | 17.22° C | 78% | 1014.8 hPa | 0 mm | - | 192 W/m² | - |
| 1777566634 | 17.22° C | 77% | 1014.4 hPa | 0 mm | - | 232 W/m² | - |
| 1777566332 | 17.22° C | 79% | 1014.6 hPa | 0 mm | - | 247 W/m² | - |
| 1777566029 | 17.22° C | 78% | 1014.6 hPa | 0 mm | - | 272 W/m² | - |
| 1777565724 | 17.78° C | 81% | 1014.4 hPa | 0 mm | - | 290 W/m² | - |
| 1777565421 | 17.22° C | 80% | 1014.6 hPa | 0 mm | - | 291 W/m² | - |
* Rain latest hour (hover to see other rain measurements)
** Current wind speed in m/s (hover to see current wind gust speed)